Tracking 19170 objects as of 22-May-2018
HD Live streaming from Space Station
objects crossing your sky now

CZ-2D DEB

Track CZ-2D DEB now!
10-day predictions


NORAD ID: 28742
Int'l Code: 2005-024F
Perigee: 516.4 km
Apogee: 674.8 km
Inclination: 97.7 °
Period: 96.4 minutes
Semi major axis: 6966 km
RCS: 0.0146 m2 (small)
Launch date: July 5, 2005
Source: People's Republic of China (PRC)
Launch site: Jiuquan Satellite Launch Center, China (JSC)

Note: This is SATELLITE DEBRIS
aabbcc
Your satellite tracking list
Your tracking list is empty




NASA's NSSDC Master Catalog

Two Line Element Set (TLE):
1 28742U 05024F   18141.40139568 +.00001768 +00000-0 +15522-3 0  9995
2 28742 097.7156 297.9511 0113737 173.1190 187.1625 14.93038206687522
Source of the keplerian elements: AFSPC